Rice Lake, WI

10:20 PM CST on February 24, 2018 (GMT -0600)
Rice Lake Regional-Carl's

Weather History for KRPD - April, 2014

Change the Weather History Date:

Sunday, April 6, 2014

  Actual Average Record
Temperature  
Mean Temperature 42 °F -  
Max Temperature 52 °F 47 °F 62 °F (2006)
Min Temperature 32 °F 28 °F 14 °F (2007)
Degree Days  
Heating Degree Days 23    
Moisture  
Dew Point 31 °F    
Average Humidity 69    
Maximum Humidity 92    
Minimum Humidity 51    
Precipitation  
Precipitation 0.00 in - - ()
Sea Level Pressure  
Sea Level Pressure 29.89 in    
Wind  
Wind Speed 6 mph (SSE)    
Max Wind Speed 15 mph    
Max Gust Speed 17 mph    
Visibility 10 miles    
Events Rain    
Averages and records for this station are not official NWS values.
T = Trace of Precipitation, MM = Missing Value Source: NWS Daily Summary

Daily Weather History Graph

Daily Weather History Graph

Search for Another Location

Airport or City:

Trip Planner

Search our weather history database for the weather conditions in past years. The results will help you decide how hot, cold, wet, or windy it might be!

Date:

Astronomy

Apr. 06, 2014 Rise Set
Actual Time 6:38 AM CDT 7:41 PM CDT
Civil Twilight 6:07 AM CDT 8:11 PM CDT
Nautical Twilight 5:31 AM CDT 8:48 PM CDT
Astronomical Twilight 4:53 AM CDT 9:26 PM CDT
Moon 11:30 AM CDT (4/6) 1:47 AM CDT (4/6)
Length of Visible Light 14h 04m
Length of Day
13h 03m
Waxing Crescent, 44% of the Moon is Illuminated
Apr 6
Waxing Crescent
Apr 7
First Quarter
Apr 15
Full
Apr 22
Last Quarter
Apr 29
New

Hourly Weather History & Observations

Time (CDT) Temp. Windchill Dew Point Humidity Pressure Visibility Wind Dir Wind Speed Gust Speed Precip Events Conditions
12:15 AM 36.5 °F 31.8 °F 29.8 °F 77% 30.00 in 10.0 mi SE 5.8 mph - N/A   Scattered Clouds
12:35 AM 34.7 °F 30.6 °F 29.3 °F 81% 30.00 in 10.0 mi SE 4.6 mph - N/A   Scattered Clouds
12:55 AM 35.6 °F 29.9 °F 29.3 °F 78% 29.99 in 10.0 mi SE 6.9 mph - N/A   Clear
1:15 AM 34.9 °F 29.0 °F 29.1 °F 79% 29.99 in 10.0 mi SE 6.9 mph - N/A   Clear
1:35 AM 35.1 °F 30.1 °F 29.5 °F 80% 29.98 in 10.0 mi SE 5.8 mph - N/A   Clear
1:55 AM 35.4 °F 30.5 °F 29.3 °F 78% 29.98 in 10.0 mi SE 5.8 mph - N/A   Clear
2:15 AM 35.1 °F 30.1 °F 29.1 °F 79% 29.97 in 10.0 mi SE 5.8 mph - N/A   Clear
2:35 AM 35.6 °F 30.7 °F 29.3 °F 78% 29.97 in 10.0 mi ESE 5.8 mph - N/A   Mostly Cloudy
2:55 AM 35.6 °F - 29.7 °F 79% 29.97 in 10.0 mi Calm Calm - N/A   Overcast
3:15 AM 35.6 °F 32.8 °F 30.0 °F 80% 29.96 in 10.0 mi East 3.5 mph - N/A   Overcast
3:35 AM 35.6 °F 32.8 °F 29.7 °F 79% 29.96 in 10.0 mi East 3.5 mph - N/A   Overcast
3:55 AM 35.6 °F 32.8 °F 29.5 °F 78% 29.96 in 10.0 mi East 3.5 mph - N/A   Overcast
4:15 AM 35.6 °F 30.7 °F 29.3 °F 78% 29.96 in 10.0 mi ESE 5.8 mph - N/A   Overcast
4:35 AM 36.1 °F 29.3 °F 29.3 °F 76% 29.95 in 10.0 mi East 9.2 mph - N/A   Overcast
4:55 AM 36.0 °F 30.3 °F 29.7 °F 78% 29.94 in 10.0 mi ESE 6.9 mph - N/A Rain Light Rain
5:15 AM 36.1 °F 30.6 °F 29.5 °F 77% 29.93 in 10.0 mi ESE 6.9 mph - N/A   Mostly Cloudy
5:35 AM 36.5 °F 33.9 °F 29.3 °F 75% 29.93 in 10.0 mi ESE 3.5 mph - N/A   Mostly Cloudy
5:55 AM 36.5 °F 31.0 °F 29.3 °F 75% 29.93 in 10.0 mi ESE 6.9 mph - N/A   Overcast
6:15 AM 36.7 °F 30.5 °F 29.3 °F 75% 29.92 in 10.0 mi ESE 8.1 mph - N/A   Overcast
6:35 AM 36.3 °F 30.8 °F 29.3 °F 76% 29.92 in 10.0 mi SE 6.9 mph - N/A   Overcast
6:55 AM 36.1 °F 29.3 °F 28.8 °F 75% 29.92 in 10.0 mi ESE 9.2 mph - N/A   Scattered Clouds
7:15 AM 35.6 °F 28.6 °F 28.4 °F 75% 29.92 in 10.0 mi ESE 9.2 mph - N/A   Clear
7:35 AM 35.8 °F 29.4 °F 28.4 °F 75% 29.92 in 10.0 mi ESE 8.1 mph - N/A   Scattered Clouds
7:55 AM 36.5 °F 30.3 °F 28.9 °F 74% 29.92 in 10.0 mi SE 8.1 mph - N/A   Scattered Clouds
8:15 AM 36.5 °F 31.0 °F 28.9 °F 74% 29.92 in 10.0 mi SE 6.9 mph - N/A   Scattered Clouds
8:35 AM 37.4 °F 31.4 °F 29.1 °F 72% 29.91 in 10.0 mi SE 8.1 mph - N/A   Scattered Clouds
8:55 AM 37.6 °F 33.1 °F 29.5 °F 73% 29.91 in 10.0 mi SE 5.8 mph - N/A   Clear
9:15 AM 39.2 °F 34.2 °F 29.8 °F 69% 29.91 in 10.0 mi SE 6.9 mph - N/A   Clear
9:35 AM 39.4 °F 34.5 °F 30.2 °F 70% 29.90 in 10.0 mi SE 6.9 mph - N/A   Clear
9:55 AM 42.8 °F 38.0 °F 30.0 °F 61% 29.89 in 10.0 mi South 8.1 mph - N/A   Clear
10:15 AM 43.9 °F 36.8 °F 30.2 °F 59% 29.89 in 10.0 mi South 15.0 mph - N/A   Scattered Clouds
10:35 AM 43.9 °F 37.9 °F 30.6 °F 59% 29.89 in 10.0 mi South 11.5 mph - N/A   Clear
10:55 AM 44.1 °F 38.6 °F 31.1 °F 60% 29.88 in 10.0 mi South 10.4 mph - N/A   Clear
11:15 AM 45.5 °F 40.3 °F 30.6 °F 56% 29.88 in 10.0 mi South 10.4 mph - N/A   Clear
11:35 AM 45.9 °F 40.8 °F 30.6 °F 55% 29.87 in 10.0 mi South 10.4 mph 16.1 mph N/A   Clear
11:55 AM 46.2 °F 42.2 °F 30.9 °F 55% 29.87 in 10.0 mi SSW 8.1 mph 17.3 mph N/A   Clear
12:15 PM 46.4 °F 41.5 °F 31.1 °F 55% 29.87 in 10.0 mi SSW 10.4 mph - N/A   Clear
12:35 PM 47.1 °F - 31.1 °F 54% 29.86 in 10.0 mi SW 6.9 mph - N/A   Clear
12:55 PM 46.8 °F - 31.6 °F 56% 29.86 in 10.0 mi SSW 9.2 mph - N/A   Clear
1:15 PM 47.3 °F - 32.0 °F 55% 29.86 in 10.0 mi SSW 10.4 mph - N/A   Clear
1:35 PM 48.0 °F - 32.0 °F 54% 29.85 in 10.0 mi SW 8.1 mph - N/A   Clear
1:55 PM 48.6 °F - 32.0 °F 53% 29.85 in 10.0 mi SSW 9.2 mph - N/A   Clear
2:15 PM 48.7 °F - 32.4 °F 53% 29.85 in 10.0 mi SSW 8.1 mph - N/A   Clear
2:35 PM 48.9 °F - 32.9 °F 54% 29.85 in 10.0 mi SSW 9.2 mph - N/A   Clear
2:55 PM 49.5 °F - 33.1 °F 53% 29.85 in 10.0 mi SSW 9.2 mph - N/A   Clear
3:15 PM 49.8 °F - 33.4 °F 53% 29.84 in 10.0 mi SSW 8.1 mph - N/A   Clear
3:35 PM 50.4 °F - 33.8 °F 53% 29.84 in 10.0 mi SSW 8.1 mph - N/A   Clear
3:55 PM 50.4 °F - 33.8 °F 53% 29.83 in 10.0 mi SW 8.1 mph - N/A   Clear
4:15 PM 50.7 °F - 34.3 °F 53% 29.83 in 10.0 mi SSW 6.9 mph - N/A   Clear
4:35 PM 51.8 °F - 34.2 °F 51% 29.83 in 10.0 mi WSW 5.8 mph - N/A   Clear
4:55 PM 52.0 °F - 34.3 °F 51% 29.83 in 10.0 mi WSW 4.6 mph - N/A   Clear
5:15 PM 52.3 °F - 34.7 °F 51% 29.83 in 10.0 mi West 4.6 mph - N/A   Clear
5:35 PM 51.4 °F - 34.9 °F 53% 29.83 in 10.0 mi West 3.5 mph - N/A   Clear
5:55 PM 52.0 °F - 35.1 °F 53% 29.83 in 10.0 mi West 3.5 mph - N/A   Clear
6:15 PM 52.2 °F - 35.2 °F 53% 29.83 in 10.0 mi West 4.6 mph - N/A   Clear
6:35 PM 52.0 °F - 35.6 °F 54% 29.84 in 10.0 mi West 3.5 mph - N/A   Clear
6:55 PM 51.8 °F - 35.8 °F 54% 29.84 in 10.0 mi Calm Calm - N/A   Clear
7:15 PM 49.5 °F - 35.6 °F 59% 29.83 in 10.0 mi Calm Calm - N/A   Clear
7:35 PM 47.7 °F - 35.1 °F 62% 29.83 in 10.0 mi Calm Calm - N/A   Clear
7:55 PM 45.7 °F - 34.3 °F 65% 29.83 in 10.0 mi Calm Calm - N/A   Clear
8:15 PM 43.7 °F - 34.5 °F 70% 29.84 in 10.0 mi Calm Calm - N/A   Clear
8:35 PM 39.6 °F - 33.4 °F 79% 29.85 in 10.0 mi Calm Calm - N/A   Clear
8:55 PM 40.3 °F - 34.0 °F 78% 29.85 in 10.0 mi Calm Calm - N/A   Clear
9:15 PM 36.9 °F - 32.9 °F 86% 29.86 in 10.0 mi Calm Calm - N/A   Clear
9:35 PM 36.5 °F - 32.5 °F 86% 29.86 in 10.0 mi Calm Calm - N/A   Clear
9:55 PM 34.3 °F - 32.0 °F 91% 29.86 in 7.0 mi Calm Calm - N/A   Clear
10:15 PM 34.7 °F - 32.0 °F 90% 29.86 in 7.0 mi Calm Calm - N/A   Clear
10:35 PM 32.9 °F - 30.9 °F 92% 29.86 in 5.0 mi Calm Calm - N/A   Clear
10:55 PM 35.2 °F 31.2 °F 32.4 °F 89% 29.87 in 7.0 mi South 4.6 mph - N/A   Clear
11:15 PM 34.0 °F - 31.5 °F 90% 29.86 in 5.0 mi Calm Calm - N/A   Clear
11:35 PM 33.8 °F - 31.6 °F 92% 29.87 in 7.0 mi Calm Calm - N/A   Clear